Time,TemperatureF,DewpointF,PressureIn,WindDirection,WindDirectionDegrees,WindSpeedMPH,WindSpeedGustMPH,Humidity,HourlyPrecipIn,Conditions,Clouds,dailyrainin,SoftwareType,DateUTC
2013-06-10 00:03:00,62.0,48.0,26.86,SE,137,10.0,11.0,61,0.00,,,-99.99,,2013-06-10 05:03:00,
2013-06-10 00:08:00,62.0,50.0,26.86,SE,140,9.0,10.0,63,0.00,,,-99.99,,2013-06-10 05:08:00,
2013-06-10 00:18:00,62.0,50.0,26.86,SE,131,9.0,10.0,64,0.00,,,-99.99,,2013-06-10 05:18:00,
2013-06-10 00:23:00,61.0,48.0,26.86,SE,145,9.0,10.0,64,0.00,,,-99.99,,2013-06-10 05:23:00,
2013-06-10 00:33:00,61.0,48.0,26.86,SE,141,10.0,10.0,63,0.00,,,-99.99,,2013-06-10 05:33:00,
2013-06-10 00:38:00,61.0,48.0,26.86,SE,144,9.0,10.0,61,0.00,,,-99.99,,2013-06-10 05:38:00,
2013-06-10 00:53:00,60.0,48.0,26.86,SSE,147,8.0,10.0,67,0.00,,,-99.99,,2013-06-10 05:53:00,
2013-06-10 00:58:00,60.0,48.0,26.86,SSE,147,10.0,11.0,65,0.00,,,-99.99,,2013-06-10 05:58:00,
2013-06-10 01:08:00,60.0,48.0,26.86,SSE,157,11.0,12.0,64,0.00,,,-99.99,,2013-06-10 06:08:00,
2013-06-10 01:13:00,60.0,48.0,26.86,SSE,152,12.0,14.0,66,0.00,,,-99.99,,2013-06-10 06:13:00,
2013-06-10 01:23:00,62.0,50.0,26.86,SSE,157,10.0,12.0,64,0.00,,,-99.99,,2013-06-10 06:23:00,
2013-06-10 01:28:00,61.0,48.0,26.86,SSE,158,9.0,11.0,64,0.00,,,-99.99,,2013-06-10 06:28:00,
2013-06-10 01:33:00,61.0,48.0,26.86,SSE,155,9.0,11.0,64,0.00,,,-99.99,,2013-06-10 06:33:00,
2013-06-10 01:38:00,61.0,48.0,26.86,SSE,155,10.0,11.0,64,0.00,,,-99.99,,2013-06-10 06:38:00,
2013-06-10 01:43:00,61.0,50.0,26.86,SSE,161,11.0,11.0,66,0.00,,,-99.99,,2013-06-10 06:43:00,
2013-06-10 01:48:00,60.0,48.0,26.85,SSE,164,11.0,12.0,66,0.00,,,-99.99,,2013-06-10 06:48:00,
2013-06-10 02:03:00,60.0,52.0,26.85,SSE,162,11.0,12.0,72,0.00,,,-99.99,,2013-06-10 07:03:00,
2013-06-10 02:08:00,60.0,48.0,26.85,SSE,162,11.0,12.0,66,0.00,,,-99.99,,2013-06-10 07:08:00,
2013-06-10 02:18:00,59.0,48.0,26.85,SSE,161,9.0,10.0,67,0.00,,,-99.99,,2013-06-10 07:18:00,
2013-06-10 02:23:00,59.0,48.0,26.85,SSE,162,10.0,11.0,68,0.00,,,-99.99,,2013-06-10 07:23:00,
2013-06-10 02:28:00,59.0,48.0,26.85,SSE,164,10.0,11.0,69,0.00,,,-99.99,,2013-06-10 07:28:00,
2013-06-10 02:38:00,58.0,48.0,26.84,SSE,168,10.0,12.0,70,0.00,,,-99.99,,2013-06-10 07:38:00,
2013-06-10 02:43:00,58.0,48.0,26.84,SSE,168,11.0,11.0,69,0.00,,,-99.99,,2013-06-10 07:43:00,
2013-06-10 02:53:00,59.0,50.0,26.84,South,171,11.0,12.0,74,0.00,,,-99.99,,2013-06-10 07:53:00,
2013-06-10 02:58:00,59.0,50.0,26.84,SSE,168,11.0,12.0,74,0.00,,,-99.99,,2013-06-10 07:58:00,
2013-06-10 03:03:00,59.0,48.0,26.84,SSE,165,11.0,12.0,68,0.00,,,-99.99,,2013-06-10 08:03:00,
2013-06-10 03:13:00,59.0,48.0,26.84,SSE,165,10.0,11.0,68,0.00,,,-99.99,,2013-06-10 08:13:00,
2013-06-10 03:18:00,59.0,48.0,26.84,South,178,9.0,10.0,69,0.00,,,-99.99,,2013-06-10 08:18:00,
2013-06-10 03:23:00,58.0,48.0,26.84,SSE,168,9.0,10.0,69,0.00,,,-99.99,,2013-06-10 08:23:00,
2013-06-10 03:33:00,58.0,48.0,26.84,South,178,9.0,10.0,70,0.00,,,-99.99,,2013-06-10 08:33:00,
2013-06-10 03:38:00,57.0,48.0,26.84,South,173,8.0,9.0,70,0.00,,,-99.99,,2013-06-10 08:38:00,
2013-06-10 03:53:00,57.0,48.0,26.84,SSE,161,10.0,11.0,70,0.00,,,-99.99,,2013-06-10 08:53:00,
2013-06-10 03:58:00,58.0,48.0,26.83,SSE,162,10.0,11.0,69,0.00,,,-99.99,,2013-06-10 08:58:00,
2013-06-10 04:03:00,58.0,48.0,26.83,SSE,161,10.0,12.0,71,0.00,,,-99.99,,2013-06-10 09:03:00,
2013-06-10 04:08:00,58.0,48.0,26.83,SSE,162,10.0,11.0,70,0.00,,,-99.99,,2013-06-10 09:08:00,
2013-06-10 04:13:00,58.0,48.0,26.83,South,169,10.0,11.0,70,0.00,,,-99.99,,2013-06-10 09:13:00,
2013-06-10 04:23:00,58.0,48.0,26.83,SSE,162,10.0,11.0,68,0.00,,,-99.99,,2013-06-10 09:23:00,
2013-06-10 04:28:00,58.0,48.0,26.83,SSE,166,10.0,11.0,69,0.00,,,-99.99,,2013-06-10 09:28:00,
2013-06-10 04:33:00,58.0,48.0,26.83,South,171,10.0,12.0,69,0.00,,,-99.99,,2013-06-10 09:33:00,
2013-06-10 04:38:00,59.0,48.0,26.83,SSE,168,11.0,12.0,69,0.00,,,-99.99,,2013-06-10 09:38:00,
2013-06-10 04:48:00,59.0,48.0,26.83,SSE,164,10.0,12.0,68,0.00,,,-99.99,,2013-06-10 09:48:00,
2013-06-10 04:53:00,59.0,48.0,26.83,SSE,158,10.0,12.0,68,0.00,,,-99.99,,2013-06-10 09:53:00,
2013-06-10 04:58:00,59.0,50.0,26.83,SSE,154,11.0,12.0,72,0.00,,,-99.99,,2013-06-10 09:58:00,
2013-06-10 05:03:00,59.0,50.0,26.82,SSE,159,11.0,13.0,73,0.00,,,-99.99,,2013-06-10 10:03:00,
2013-06-10 05:08:00,58.0,50.0,26.82,SSE,157,10.0,11.0,73,0.00,,,-99.99,,2013-06-10 10:08:00,
2013-06-10 05:13:00,58.0,48.0,26.82,SSE,159,11.0,12.0,70,0.00,,,-99.99,,2013-06-10 10:13:00,
2013-06-10 05:18:00,58.0,48.0,26.82,SSE,161,11.0,12.0,70,0.00,,,-99.99,,2013-06-10 10:18:00,
2013-06-10 05:23:00,58.0,48.0,26.82,SSE,162,10.0,12.0,71,0.00,,,-99.99,,2013-06-10 10:23:00,
2013-06-10 05:28:00,58.0,48.0,26.82,SSE,164,10.0,11.0,71,0.00,,,-99.99,,2013-06-10 10:28:00,
2013-06-10 05:43:00,57.0,48.0,26.82,SSE,154,10.0,11.0,74,0.00,,,-99.99,,2013-06-10 10:43:00,
2013-06-10 05:48:00,57.0,48.0,26.82,SE,141,11.0,12.0,72,0.00,,,-99.99,,2013-06-10 10:48:00,
2013-06-10 05:58:00,57.0,50.0,26.82,SSE,151,11.0,12.0,75,0.00,,,-99.99,,2013-06-10 10:58:00,
2013-06-10 06:03:00,57.0,48.0,26.82,SSE,147,11.0,12.0,72,0.00,,,-99.99,,2013-06-10 11:03:00,
2013-06-10 06:08:00,57.0,50.0,26.82,SSE,149,10.0,11.0,75,0.00,,,-99.99,,2013-06-10 11:08:00,
2013-06-10 06:18:00,56.0,46.0,26.81,SE,145,10.0,11.0,72,0.00,,,-99.99,,2013-06-10 11:18:00,
2013-06-10 06:23:00,56.0,46.0,26.81,SSE,151,10.0,11.0,72,0.00,,,-99.99,,2013-06-10 11:23:00,
2013-06-10 06:28:00,56.0,46.0,26.81,SSE,148,10.0,10.0,72,0.00,,,-99.99,,2013-06-10 11:28:00,
2013-06-10 06:38:00,56.0,46.0,26.81,SE,144,8.0,9.0,72,0.00,,,-99.99,,2013-06-10 11:38:00,
2013-06-10 06:43:00,56.0,46.0,26.82,SE,138,7.0,8.0,72,0.00,,,-99.99,,2013-06-10 11:43:00,
2013-06-10 06:48:00,57.0,48.0,26.81,SE,135,8.0,8.0,72,0.00,,,-99.99,,2013-06-10 11:48:00,
2013-06-10 06:58:00,58.0,48.0,26.82,SE,134,9.0,9.0,72,0.00,,,-99.99,,2013-06-10 11:58:00,
2013-06-10 07:03:00,58.0,48.0,26.82,SE,125,7.0,8.0,72,0.00,,,-99.99,,2013-06-10 12:03:00,
2013-06-10 07:08:00,58.0,48.0,26.81,ESE,123,7.0,8.0,71,0.00,,,-99.99,,2013-06-10 12:08:00,
2013-06-10 07:13:00,58.0,48.0,26.81,SE,135,7.0,8.0,71,0.00,,,-99.99,,2013-06-10 12:13:00,
2013-06-10 07:18:00,58.0,48.0,26.81,SE,138,7.0,8.0,70,0.00,,,-99.99,,2013-06-10 12:18:00,
2013-06-10 07:23:00,59.0,50.0,26.81,SE,131,8.0,9.0,71,0.00,,,-99.99,,2013-06-10 12:23:00,
2013-06-10 07:38:00,60.0,50.0,26.81,SE,138,7.0,8.0,69,0.00,,,-99.99,,2013-06-10 12:38:00,
2013-06-10 07:43:00,60.0,50.0,26.81,SE,141,7.0,9.0,68,0.00,,,-99.99,,2013-06-10 12:43:00,
2013-06-10 07:53:00,62.0,50.0,26.81,SE,145,10.0,12.0,63,0.00,,,-99.99,,2013-06-10 12:53:00,
2013-06-10 07:58:00,62.0,50.0,26.80,SE,142,10.0,11.0,64,0.00,,,-99.99,,2013-06-10 12:58:00,
2013-06-10 08:03:00,63.0,50.0,26.80,SSE,154,9.0,11.0,63,0.00,,,-99.99,,2013-06-10 13:03:00,
2013-06-10 08:08:00,64.0,50.0,26.80,South,171,9.0,12.0,62,0.00,,,-99.99,,2013-06-10 13:08:00,
2013-06-10 08:18:00,65.0,50.0,26.79,SSE,162,13.0,15.0,57,0.00,,,-99.99,,2013-06-10 13:18:00,
2013-06-10 08:23:00,65.0,50.0,26.80,SSE,155,13.0,15.0,60,0.00,,,-99.99,,2013-06-10 13:23:00,
2013-06-10 08:28:00,66.0,52.0,26.81,SSE,152,12.0,13.0,61,0.00,,,-99.99,,2013-06-10 13:28:00,
2013-06-10 08:33:00,66.0,52.0,26.81,South,179,10.0,11.0,60,0.00,,,-99.99,,2013-06-10 13:33:00,
2013-06-10 08:38:00,67.0,52.0,26.81,South,176,10.0,13.0,59,0.00,,,-99.99,,2013-06-10 13:38:00,
2013-06-10 08:43:00,68.0,52.0,26.81,South,175,13.0,14.0,57,0.00,,,-99.99,,2013-06-10 13:43:00,
2013-06-10 08:48:00,68.0,52.0,26.81,SSE,164,13.0,17.0,57,0.00,,,-99.99,,2013-06-10 13:48:00,
2013-06-10 08:58:00,70.0,52.0,26.80,South,178,15.0,18.0,54,0.00,,,-99.99,,2013-06-10 13:58:00,
2013-06-10 09:08:00,72.0,55.0,26.80,South,179,17.0,21.0,55,0.00,,,-99.99,,2013-06-10 14:08:00,
2013-06-10 09:18:00,73.0,54.0,26.80,South,179,16.0,19.0,52,0.00,,,-99.99,,2013-06-10 14:18:00,
2013-06-10 09:23:00,74.0,55.0,26.81,SSW,193,17.0,20.0,52,0.00,,,-99.99,,2013-06-10 14:23:00,
2013-06-10 09:28:00,74.0,54.0,26.80,South,171,18.0,21.0,48,0.00,,,-99.99,,2013-06-10 14:28:00,
2013-06-10 09:33:00,75.0,54.0,26.80,SSE,161,16.0,19.0,48,0.00,,,-99.99,,2013-06-10 14:33:00,
2013-06-10 09:43:00,75.0,55.0,26.80,South,186,18.0,21.0,50,0.00,,,-99.99,,2013-06-10 14:43:00,
2013-06-10 09:48:00,76.0,55.0,26.79,South,186,18.0,21.0,49,0.00,,,-99.99,,2013-06-10 14:48:00,
2013-06-10 09:58:00,77.0,52.0,26.79,South,176,15.0,18.0,42,0.00,,,-99.99,,2013-06-10 14:58:00,
2013-06-10 10:03:00,77.0,54.0,26.79,South,179,14.0,17.0,43,0.00,,,-99.99,,2013-06-10 15:03:00,
2013-06-10 10:08:00,78.0,57.0,26.79,SSW,203,15.0,17.0,49,0.00,,,-99.99,,2013-06-10 15:08:00,
2013-06-10 10:13:00,78.0,54.0,26.78,South,190,15.0,18.0,43,0.00,,,-99.99,,2013-06-10 15:13:00,
2013-06-10 10:18:00,78.0,52.0,26.78,South,183,16.0,18.0,41,0.00,,,-99.99,,2013-06-10 15:18:00,
2013-06-10 10:23:00,79.0,57.0,26.78,South,186,14.0,17.0,46,0.00,,,-99.99,,2013-06-10 15:23:00,
2013-06-10 10:33:00,80.0,59.0,26.78,South,185,15.0,18.0,48,0.00,,,-99.99,,2013-06-10 15:33:00,
2013-06-10 10:38:00,80.0,57.0,26.78,SSW,202,13.0,16.0,47,0.00,,,-99.99,,2013-06-10 15:38:00,
2013-06-10 10:43:00,81.0,55.0,26.78,SSW,200,13.0,16.0,42,0.00,,,-99.99,,2013-06-10 15:43:00,
2013-06-10 10:48:00,81.0,61.0,26.78,SSW,193,13.0,16.0,50,0.00,,,-99.99,,2013-06-10 15:48:00,
2013-06-10 10:58:00,82.0,61.0,26.78,South,185,14.0,17.0,50,0.00,,,-99.99,,2013-06-10 15:58:00,
2013-06-10 11:08:00,83.0,57.0,26.78,South,178,14.0,16.0,41,0.00,,,-99.99,,2013-06-10 16:08:00,
2013-06-10 11:18:00,84.0,61.0,26.78,South,180,13.0,15.0,46,0.00,,,-99.99,,2013-06-10 16:18:00,
2013-06-10 11:23:00,84.0,61.0,26.77,South,185,13.0,16.0,46,0.00,,,-99.99,,2013-06-10 16:23:00,
2013-06-10 11:33:00,85.0,61.0,26.77,South,178,12.0,15.0,45,0.00,,,-99.99,,2013-06-10 16:33:00,
2013-06-10 11:38:00,86.0,63.0,26.77,South,183,11.0,14.0,47,0.00,,,-99.99,,2013-06-10 16:38:00,
2013-06-10 11:43:00,86.0,63.0,26.77,SSW,199,10.0,13.0,47,0.00,,,-99.99,,2013-06-10 16:43:00,
2013-06-10 11:53:00,87.0,59.0,26.77,South,182,13.0,15.0,38,0.00,,,-99.99,,2013-06-10 16:53:00,
2013-06-10 11:58:00,87.0,63.0,26.77,South,185,12.0,15.0,43,0.00,,,-99.99,,2013-06-10 16:58:00,
2013-06-10 12:08:00,89.0,64.0,26.77,South,179,14.0,16.0,45,0.00,,,-99.99,,2013-06-10 17:08:00,
2013-06-10 12:18:00,90.0,63.0,26.77,SSW,195,10.0,14.0,41,0.00,,,-99.99,,2013-06-10 17:18:00,
2013-06-10 12:23:00,90.0,64.0,26.77,SW,217,10.0,13.0,43,0.00,,,-99.99,,2013-06-10 17:23:00,
2013-06-10 12:33:00,91.0,64.0,26.77,South,186,8.0,11.0,42,0.00,,,-99.99,,2013-06-10 17:33:00,
2013-06-10 12:38:00,92.0,63.0,26.77,SW,233,9.0,11.0,39,0.00,,,-99.99,,2013-06-10 17:38:00,
2013-06-10 12:48:00,92.0,63.0,26.76,SSW,203,9.0,12.0,38,0.00,,,-99.99,,2013-06-10 17:48:00,
2013-06-10 12:53:00,93.0,63.0,26.77,SSW,199,8.0,11.0,37,0.00,,,-99.99,,2013-06-10 17:53:00,
2013-06-10 12:58:00,93.0,59.0,26.76,WSW,237,8.0,11.0,33,0.00,,,-99.99,,2013-06-10 17:58:00,
2013-06-10 13:03:00,93.0,64.0,26.76,SSW,195,8.0,11.0,38,0.00,,,-99.99,,2013-06-10 18:03:00,
2013-06-10 13:08:00,93.0,59.0,26.76,SSW,192,7.0,10.0,33,0.00,,,-99.99,,2013-06-10 18:08:00,
2013-06-10 13:13:00,94.0,59.0,26.76,SSW,197,6.0,8.0,32,0.00,,,-99.99,,2013-06-10 18:13:00,
2013-06-10 13:18:00,94.0,59.0,26.76,SW,235,8.0,11.0,31,0.00,,,-99.99,,2013-06-10 18:18:00,
2013-06-10 13:23:00,94.0,55.0,26.76,WSW,238,8.0,10.0,28,0.00,,,-99.99,,2013-06-10 18:23:00,
2013-06-10 13:33:00,94.0,57.0,26.76,SW,224,7.0,9.0,30,0.00,,,-99.99,,2013-06-10 18:33:00,
2013-06-10 13:38:00,95.0,57.0,26.76,WSW,245,7.0,9.0,28,0.00,,,-99.99,,2013-06-10 18:38:00,
2013-06-10 13:48:00,95.0,59.0,26.76,SW,235,8.0,10.0,30,0.00,,,-99.99,,2013-06-10 18:48:00,
2013-06-10 13:53:00,94.0,59.0,26.76,WSW,250,7.0,10.0,31,0.00,,,-99.99,,2013-06-10 18:53:00,
2013-06-10 14:08:00,94.0,55.0,26.75,WSW,243,2.0,7.0,28,0.00,,,-99.99,,2013-06-10 19:08:00,
2013-06-10 14:13:00,95.0,57.0,26.74,WSW,241,6.0,9.0,28,0.00,,,-99.99,,2013-06-10 19:13:00,
2013-06-10 14:23:00,96.0,57.0,26.74,SSE,159,5.0,7.0,27,0.00,,,-99.99,,2013-06-10 19:23:00,
2013-06-10 14:28:00,97.0,61.0,26.74,SW,230,9.0,13.0,30,0.00,,,-99.99,,2013-06-10 19:28:00,
2013-06-10 14:33:00,98.0,59.0,26.74,SSW,193,9.0,11.0,27,0.00,,,-99.99,,2013-06-10 19:33:00,
2013-06-10 14:43:00,100.0,57.0,26.74,SSE,168,9.0,11.0,24,0.00,,,-99.99,,2013-06-10 19:43:00,
2013-06-10 14:48:00,101.0,55.0,26.73,South,190,7.0,10.0,22,0.00,,,-99.99,,2013-06-10 19:48:00,
2013-06-10 14:58:00,101.0,52.0,26.73,SSE,157,8.0,10.0,20,0.00,,,-99.99,,2013-06-10 19:58:00,
2013-06-10 15:03:00,101.0,52.0,26.73,South,176,8.0,11.0,20,0.00,,,-99.99,,2013-06-10 20:03:00,
2013-06-10 15:08:00,102.0,46.0,26.73,South,179,8.0,10.0,15,0.00,,,-99.99,,2013-06-10 20:08:00,
2013-06-10 15:18:00,102.0,46.0,26.73,South,176,8.0,10.0,15,0.00,,,-99.99,,2013-06-10 20:18:00,
2013-06-10 15:23:00,102.0,45.0,26.73,SE,127,8.0,10.0,14,0.00,,,-99.99,,2013-06-10 20:23:00,
2013-06-10 15:28:00,102.0,39.0,26.73,South,185,9.0,10.0,12,0.00,,,-99.99,,2013-06-10 20:28:00,
2013-06-10 15:38:00,101.0,43.0,26.73,WSW,240,7.0,8.0,14,0.00,,,-99.99,,2013-06-10 20:38:00,
2013-06-10 15:43:00,101.0,45.0,26.72,WSW,243,7.0,8.0,15,0.00,,,-99.99,,2013-06-10 20:43:00,
2013-06-10 15:48:00,100.0,48.0,26.72,WSW,247,5.0,6.0,17,0.00,,,-99.99,,2013-06-10 20:48:00,
2013-06-10 15:53:00,101.0,43.0,26.72,WSW,248,3.0,5.0,14,0.00,,,-99.99,,2013-06-10 20:53:00,
2013-06-10 15:58:00,101.0,43.0,26.72,SSW,210,5.0,8.0,14,0.00,,,-99.99,,2013-06-10 20:58:00,
2013-06-10 16:03:00,102.0,45.0,26.72,South,185,7.0,8.0,14,0.00,,,-99.99,,2013-06-10 21:03:00,
2013-06-10 16:08:00,102.0,45.0,26.72,South,189,4.0,6.0,14,0.00,,,-99.99,,2013-06-10 21:08:00,
2013-06-10 16:23:00,101.0,50.0,26.71,SSW,196,8.0,9.0,18,0.00,,,-99.99,,2013-06-10 21:23:00,
2013-06-10 16:28:00,102.0,46.0,26.71,South,178,10.0,12.0,16,0.00,,,-99.99,,2013-06-10 21:28:00,
2013-06-10 16:33:00,102.0,45.0,26.71,South,190,5.0,7.0,14,0.00,,,-99.99,,2013-06-10 21:33:00,
2013-06-10 16:38:00,103.0,45.0,26.70,South,176,5.0,6.0,14,0.00,,,-99.99,,2013-06-10 21:38:00,
2013-06-10 16:43:00,103.0,41.0,26.70,South,182,5.0,6.0,12,0.00,,,-99.99,,2013-06-10 21:43:00,
2013-06-10 16:48:00,104.0,41.0,26.70,SSE,168,7.0,9.0,12,0.00,,,-99.99,,2013-06-10 21:48:00,
2013-06-10 16:53:00,104.0,37.0,26.70,SSW,195,7.0,8.0,10,0.00,,,-99.99,,2013-06-10 21:53:00,
2013-06-10 17:08:00,103.0,41.0,26.70,SSE,151,2.0,4.0,12,0.00,,,-99.99,,2013-06-10 22:08:00,
2013-06-10 17:13:00,103.0,43.0,26.70,ESE,113,1.0,4.0,13,0.00,,,-99.99,,2013-06-10 22:13:00,
2013-06-10 17:28:00,101.0,43.0,26.70,ENE,75,8.0,10.0,14,0.00,,,-99.99,,2013-06-10 22:28:00,
2013-06-10 17:33:00,101.0,50.0,26.70,SE,138,7.0,9.0,18,0.00,,,-99.99,,2013-06-10 22:33:00,
2013-06-10 17:38:00,101.0,45.0,26.70,SSW,199,6.0,8.0,15,0.00,,,-99.99,,2013-06-10 22:38:00,
2013-06-10 17:48:00,102.0,41.0,26.70,SSE,162,8.0,10.0,13,0.00,,,-99.99,,2013-06-10 22:48:00,
2013-06-10 17:53:00,102.0,45.0,26.69,SSE,158,7.0,8.0,14,0.00,,,-99.99,,2013-06-10 22:53:00,
2013-06-10 18:08:00,103.0,48.0,26.69,ESE,110,4.0,7.0,16,0.00,,,-99.99,,2013-06-10 23:08:00,
2013-06-10 18:13:00,102.0,46.0,26.69,ESE,117,5.0,8.0,16,0.00,,,-99.99,,2013-06-10 23:13:00,
2013-06-10 18:28:00,101.0,41.0,26.69,East,85,9.0,11.0,13,0.00,,,-99.99,,2013-06-10 23:28:00,
2013-06-10 18:33:00,101.0,43.0,26.69,East,83,10.0,11.0,14,0.00,,,-99.99,,2013-06-10 23:33:00,
2013-06-10 18:38:00,100.0,41.0,26.68,East,87,10.0,11.0,13,0.00,,,-99.99,,2013-06-10 23:38:00,
2013-06-10 18:43:00,100.0,45.0,26.68,East,94,10.0,11.0,15,0.00,,,-99.99,,2013-06-10 23:43:00,
2013-06-10 18:48:00,100.0,37.0,26.68,East,79,9.0,10.0,12,0.00,,,-99.99,,2013-06-10 23:48:00,
2013-06-10 19:03:00,99.0,39.0,26.68,ENE,76,9.0,11.0,13,0.00,,,-99.99,,2013-06-11 00:03:00,
2013-06-10 19:08:00,99.0,48.0,26.68,East,86,9.0,11.0,18,0.00,,,-99.99,,2013-06-11 00:08:00,
2013-06-10 19:13:00,99.0,48.0,26.68,East,87,10.0,11.0,18,0.00,,,-99.99,,2013-06-11 00:13:00,
2013-06-10 19:18:00,99.0,48.0,26.68,East,89,10.0,11.0,18,0.00,,,-99.99,,2013-06-11 00:18:00,
2013-06-10 19:23:00,99.0,46.0,26.68,East,92,10.0,11.0,17,0.00,,,-99.99,,2013-06-11 00:23:00,
2013-06-10 19:33:00,97.0,48.0,26.68,East,89,9.0,11.0,19,0.00,,,-99.99,,2013-06-11 00:33:00,
2013-06-10 19:38:00,97.0,50.0,26.68,East,85,8.0,9.0,20,0.00,,,-99.99,,2013-06-11 00:38:00,
2013-06-10 19:43:00,96.0,52.0,26.68,East,80,7.0,8.0,22,0.00,,,-99.99,,2013-06-11 00:43:00,
2013-06-10 19:48:00,96.0,52.0,26.68,East,93,8.0,10.0,22,0.00,,,-99.99,,2013-06-11 00:48:00,
2013-06-10 19:53:00,96.0,54.0,26.68,ENE,76,8.0,9.0,24,0.00,,,-99.99,,2013-06-11 00:53:00,
2013-06-10 20:03:00,94.0,54.0,26.68,East,85,9.0,10.0,26,0.00,,,-99.99,,2013-06-11 01:03:00,
2013-06-10 20:08:00,93.0,55.0,26.67,East,90,8.0,10.0,28,0.00,,,-99.99,,2013-06-11 01:08:00,
2013-06-10 20:18:00,92.0,52.0,26.68,East,100,12.0,17.0,25,0.00,,,-99.99,,2013-06-11 01:18:00,
2013-06-10 20:23:00,91.0,46.0,26.68,ESE,118,16.0,19.0,21,0.00,,,-99.99,,2013-06-11 01:23:00,
2013-06-10 20:28:00,91.0,59.0,26.67,SE,127,16.0,19.0,35,0.00,,,-99.99,,2013-06-11 01:28:00,
2013-06-10 20:33:00,91.0,63.0,26.68,SE,137,14.0,16.0,38,0.00,,,-99.99,,2013-06-11 01:33:00,
2013-06-10 20:38:00,91.0,61.0,26.68,SE,137,12.0,15.0,36,0.00,,,-99.99,,2013-06-11 01:38:00,
2013-06-10 20:43:00,91.0,63.0,26.67,SE,128,12.0,15.0,38,0.00,,,-99.99,,2013-06-11 01:43:00,
2013-06-10 20:53:00,89.0,63.0,26.68,SE,128,10.0,11.0,41,0.00,,,-99.99,,2013-06-11 01:53:00,
2013-06-10 21:03:00,87.0,63.0,26.68,ESE,116,11.0,14.0,45,0.00,,,-99.99,,2013-06-11 02:03:00,
2013-06-10 21:08:00,87.0,64.0,26.68,SE,130,11.0,15.0,46,0.00,,,-99.99,,2013-06-11 02:08:00,
2013-06-10 21:18:00,87.0,66.0,26.68,ESE,106,11.0,14.0,50,0.00,,,-99.99,,2013-06-11 02:18:00,
2013-06-10 21:23:00,86.0,63.0,26.69,ESE,118,10.0,12.0,47,0.00,,,-99.99,,2013-06-11 02:23:00,
2013-06-10 21:28:00,86.0,64.0,26.69,ESE,123,9.0,12.0,50,0.00,,,-99.99,,2013-06-11 02:28:00,
2013-06-10 21:38:00,85.0,68.0,26.70,SE,124,8.0,11.0,56,0.00,,,-99.99,,2013-06-11 02:38:00,
2013-06-10 21:43:00,85.0,68.0,26.71,SE,125,6.0,7.0,58,0.00,,,-99.99,,2013-06-11 02:43:00,
2013-06-10 21:48:00,85.0,68.0,26.70,ESE,107,6.0,8.0,56,0.00,,,-99.99,,2013-06-11 02:48:00,
2013-06-10 21:58:00,84.0,68.0,26.71,ESE,102,10.0,11.0,58,0.00,,,-99.99,,2013-06-11 02:58:00,
2013-06-10 22:08:00,83.0,68.0,26.71,ENE,69,8.0,10.0,62,0.00,,,-99.99,,2013-06-11 03:08:00,
2013-06-10 22:18:00,83.0,70.0,26.71,NNE,21,8.0,9.0,65,0.00,,,-99.99,,2013-06-11 03:18:00,
2013-06-10 22:28:00,83.0,70.0,26.72,ENE,58,12.0,14.0,65,0.00,,,-99.99,,2013-06-11 03:28:00,
2013-06-10 22:38:00,84.0,72.0,26.72,NE,47,15.0,18.0,65,0.00,,,-99.99,,2013-06-11 03:38:00,
2013-06-10 22:43:00,84.0,70.0,26.73,NE,49,15.0,18.0,62,0.00,,,-99.99,,2013-06-11 03:43:00,
2013-06-10 22:58:00,84.0,70.0,26.75,NNE,25,21.0,29.0,64,0.00,,,-99.99,,2013-06-11 03:58:00,
2013-06-10 23:08:00,84.0,70.0,26.73,NE,34,21.0,25.0,63,0.00,,,-99.99,,2013-06-11 04:08:00,
2013-06-10 23:18:00,83.0,68.0,26.73,ENE,73,14.0,16.0,59,0.00,,,-99.99,,2013-06-11 04:18:00,
2013-06-10 23:28:00,84.0,61.0,26.71,ESE,110,15.0,18.0,46,0.00,,,-99.99,,2013-06-11 04:28:00,
2013-06-10 23:38:00,85.0,61.0,26.70,East,94,18.0,22.0,44,0.00,,,-99.99,,2013-06-11 04:38:00,
2013-06-10 23:43:00,86.0,54.0,26.70,ESE,113,15.0,19.0,34,0.00,,,-99.99,,2013-06-11 04:43:00,
2013-06-10 23:48:00,87.0,48.0,26.70,SE,128,16.0,21.0,27,0.00,,,-99.99,,2013-06-11 04:48:00,
2013-06-10 23:53:00,88.0,54.0,26.70,SE,131,16.0,19.0,32,0.00,,,-99.99,,2013-06-11 04:53:00,
2013-06-10 23:58:00,87.0,54.0,26.70,ESE,121,16.0,19.0,32,0.00,,,-99.99,,2013-06-11 04:58:00,